Location: Unspecified
(33.6682°S, 0.0000°E)
Time: 04:24:00
(UTC+00:00)

Tiros 1 despin weight - Pass Details

Date: 21 June 2019
Orbit: 594 x 642 km, 48.2° (Epoch: 21 August)

Event Time Altitude Azimuth Distance (km) Brightness Sun altitude
Rises 09:51:09 0° 332° (NNW) 2,891 ? 25.0°
Reaches altitude 10° 09:53:35 10° 340° (NNW) 1,999 ? 25.3°
Maximum altitude 09:57:46 35° 46° (NE) 1,023 ? 25.7°
Drops below altitude 10° 10:02:04 10° 112° (ESE) 2,042 ? 26.2°
Sets 10:04:34 0° 120° (ESE) 2,961 ? 26.4°
